[Iaude] MPEC W73: 2016 WP3 [a=1.38,e=0.26,i=5.4,H=25.5]

mpec at si.edu mpec at si.edu
Fri Nov 25 10:43:53 EST 2016


M.P.E.C. 2016-W73                                Issued 2016 Nov. 25, 15:40 UT
 
     The Minor Planet Electronic Circulars contain information on unusual
         minor planets and routine data on comets.  They are published
    on behalf of Division F of the International Astronomical Union by the
          Minor Planet Center, Smithsonian Astrophysical Observatory,
                          Cambridge, MA 02138, U.S.A.

             Prepared using the Tamkin Foundation Computer Network

                              MPC at CFA.HARVARD.EDU
            URL http://www.minorplanetcenter.net/    ISSN 1523-6714


                                   2016 WP3
 
Observations:
     K16W03P* C2016 11 23.24068 02 35 15.11 +37 47 35.6          20.2 VqEW073G96
     K16W03P  C2016 11 23.24496 02 35 17.27 +37 47 13.3          20.5 VqEW073G96
     K16W03P  C2016 11 23.24937 02 35 19.60 +37 46 51.1          21.0 VqEW073G96
     K16W03P  C2016 11 23.25369 02 35 21.80 +37 46 28.1          20.7 VqEW073G96
     K16W03P  C2016 11 23.28043 02 35 35.77 +37 44 07.5          20.8 VqEW073G96
     K16W03P  C2016 11 23.28160 02 35 36.45 +37 44 01.9          21.3 VqEW073G96
     K16W03P  C2016 11 23.28275 02 35 37.01 +37 43 55.3          20.8 VqEW073G96
     K16W03P  C2016 11 23.28391 02 35 37.59 +37 43 49.5          20.8 VqEW073G96
     K16W03P  C2016 11 23.31881 02 36 03.225+37 41 12.70         21.1 wLEW073F51
     K16W03P  C2016 11 23.33033 02 36 09.181+37 40 14.62         21.2 wLEW073F51
     K16W03P  C2016 11 23.34185 02 36 15.063+37 39 16.08         21.3 wLEW073F51
     K16W03P  C2016 11 23.35486 02 36 15.12 +37 37 26.1                qEW073I52
     K16W03P  C2016 11 23.35597 02 36 15.50 +37 37 21.7          20.9 VqEW073I52
     K16W03P  C2016 11 23.35708 02 36 16.11 +37 37 16.1          21.0 VqEW073I52
     K16W03P  C2016 11 23.35819 02 36 16.68 +37 37 09.7          20.7 VqEW073I52
     K16W03P  C2016 11 24.09612502 43 21.20 +36 33 26.8          20.7 GUEW073H01
     K16W03P  C2016 11 24.10215202 43 24.25 +36 32 57.4          20.6 GUEW073H01
     K16W03P  C2016 11 24.11481702 43 30.62 +36 31 55.8          20.8 GUEW073H01
     K16W03P  C2016 11 24.12027302 43 33.36 +36 31 29.1          20.8 GUEW073H01
     K16W03P  C2016 11 24.13518 02 43 41.24 +36 30 15.8          22.4 VqEW073I52
     K16W03P  C2016 11 24.13995 02 43 43.64 +36 29 53.3          20.9 VqEW073I52
     K16W03P  C2016 11 24.14157 02 43 44.40 +36 29 44.7          20.4 VqEW073I52
     K16W03P  C2016 11 24.29073 02 44 56.78 +36 17 10.3          21.0 RoEW073926
     K16W03P  C2016 11 24.29430 02 44 58.52 +36 16 52.0          21.0 RoEW073926
     K16W03P  C2016 11 24.29784 02 45 00.15 +36 16 33.9          20.6 RoEW073926
     K16W03P  C2016 11 25.10293 02 52 06.01 +35 07 35.0          20.5 VqEW073I52
     K16W03P  C2016 11 25.10666 02 52 07.75 +35 07 16.7          20.7 VqEW073I52
     K16W03P  C2016 11 25.10828 02 52 08.55 +35 07 08.5          20.0 VqEW073I52
     K16W03P  C2016 11 25.11110 02 52 09.87 +35 06 55.7          20.4 VqEW073I52
 
Observer details:
926 Tenagra II Observatory.  Observers M. Schwartz, P. R. Holvorcem.  Measurer
    M. Schwartz.  0.81-m f/7 Ritchey-Chretien + CCD.
F51 Pan-STARRS 1, Haleakala.  Observers B. Gibson, T. Goggia, S. Kahale,
    A. Schultz, M. Willman.  Measurers K. Chambers, S. Chastel, L. Denneau,
    H. Flewelling, M. Huber, E. Lilly, E. Magnier, R. Wainscoat, C. Waters,
    R. Weryk.  1.8-m Ritchey-Chretien + CCD.
G96 Mt. Lemmon Survey.  Observer R. G. Matheny.  Measurers E. J. Christensen,
    D. C. Fuls, A. R. Gibbs, A. D. Grauer, J. A. Johnson, R. A. Kowalski,
    S. M. Larson, G. J. Leonard, R. G. Matheny, R. L. Seaman, F. C. Shelly.
    1.5-m reflector + 10K CCD.
H01 Magdalena Ridge Observatory, Socorro.  Observers W. H. Ryan, E. V. Ryan.
    Measurer W. H. Ryan.  2.4-m f/8.9 reflector + CCD.
I52 Steward Observatory, Mt. Lemmon Station.  Observers D. C. Fuls,
    J. A. Johnson.  Measurers E. J. Christensen, D. C. Fuls, A. R. Gibbs,
    A. D. Grauer, J. A. Johnson, R. A. Kowalski, S. M. Larson, G. J. Leonard,
    R. G. Matheny, R. L. Seaman, F. C. Shelly.  1.0-m reflector + CCD.
 
Orbital elements:
2016 WP3                                                 Earth MOID = 0.0587 AU
Epoch 2017 Feb. 16.0 TT = JDT 2457800.5                 MPC
M  69.99049              (2000.0)            P               Q
n   0.60801192     Peri.  133.36172     +0.87797230     -0.46992586
a   1.3799435      Node   254.86076     +0.40730417     +0.83350226
e   0.2633146      Incl.    5.42685     +0.25153121     +0.29059194
P   1.62           H   25.5           G   0.15           U   7
Residuals in seconds of arc
161123 G96  0.6+  0.0     161123 F51  0.1-  0.1+    161124 I52  0.2-  0.1+
161123 G96  0.3-  0.2-    161123 I52 (2.4+  2.0-)   161124 I52  0.7-  0.5-
161123 G96  0.0   0.6+    161123 I52  0.1-  0.4-    161124 926  0.4+  0.1+
161123 G96  0.6-  0.1+    161123 I52  0.1+  0.1+    161124 926  0.6+  0.5+
161123 G96  0.3-  0.2-    161123 I52  0.1-  0.3-    161124 926  0.2-  1.1+
161123 G96  0.5+  0.4+    161124 H01  0.3+  0.2+    161125 I52  0.3-  0.2+
161123 G96  0.0   0.2-    161124 H01  0.3+  0.1+    161125 I52  0.4-  0.2-
161123 G96  0.3-  0.2+    161124 H01  0.3+  0.2+    161125 I52  0.1+  0.7-
161123 F51  0.1-  0.2-    161124 H01  0.4+  0.1+    161125 I52  0.2+  0.0
161123 F51  0.2+  0.0     161124 I52  0.5-  0.8-

Ephemeris:
2016 WP3                 a,e,i = 1.38, 0.26, 5                   q = 1.0166
Date    TT    R. A. (2000) Decl.     Delta      r     Elong.  Phase     V
2016 10 26    20 34 13.1 +41 53 32   0.07959 1.0165   104.2    71.5    22.5
...
2016 11 10    23 24 11.7 +50 29 34   0.06163 1.0273   125.6    51.6    21.4
...
2016 11 18    01 33 30.6 +44 59 34   0.06240 1.0396   144.1    33.9    21.0
...
2016 11 24    02 42 21.8 +36 42 02   0.06961 1.0516   156.7    21.8    20.9
2016 11 25    02 51 07.1 +35 16 39   0.07134 1.0538   158.5    20.1    20.9
2016 11 26    02 59 12.9 +33 52 43   0.07321 1.0561   160.1    18.6    20.9
...
2016 12 02    03 36 39.5 +26 22 28   0.08713 1.0708   166.3    12.6    21.1
...
2016 12 10    04 07 28.5 +19 14 52   0.1118  1.0932   165.3    13.2    21.7
...
2016 12 25    04 40 00.8 +12 37 38   0.1726  1.1424   155.1    21.3    23.0

A. U. Tomatic                (C) Copyright 2016 MPC           M.P.E.C. 2016-W73




More information about the Iaude mailing list